Location: Unspecified
(0.0000°N, 0.0000°E)
Time: 09:29:26
(UTC+02:00)

Cosmos 1892 Rocket - Visible Passes

Search period start: 23 August 2014 00:00
Search period end: 02 September 2014 00:00
Orbit: 608 x 635 km, 82.5° (Epoch: 22 August)

Date Brightness Start Highest point End Pass type
(mag) Time Alt. Az. Time Alt. Az. Time Alt. Az.
23 Aug 5.4 07:27:31 10° SSE 07:31:37 37° E 07:35:44 10° NNE visible
26 Aug 6.4 06:45:06 10° SE 06:48:18 19° E 06:51:30 10° NE visible
27 Aug 4.8 07:02:08 10° SSE 07:06:24 44° E 07:10:39 10° NNE visible
28 Aug 3.5 07:20:02 10° S 07:24:30 75° W 07:28:57 10° N visible
30 Aug 6.0 06:19:32 10° SE 06:23:04 23° E 06:26:35 10° NE visible
31 Aug 4.4 06:36:48 10° S 06:41:10 54° E 06:45:31 10° NNE visible
01 Sep 3.5 06:54:50 10° SSW 06:59:15 62° W 07:03:40 10° N visible
